This demonstration page uses our WeatherBlox Daily Observations layout. Learn more.

Left ArrowRight Arrow

Hourly Observations for October 30, 2021

Temp ( °F °C ) Dew Point ( °F °C ) Humidity (%) Winds ( mph kmh ) Pressure ( in mb ) Visibility ( mi km ) Precip ( " mm )
12:53 am 00:53 Mostly Cloudy 56 13.3 55 12.8 97 97 N N/A 29.87 1011 9 14 N/A
1:53 am 01:53 Cloudy 59 15 55 12.8 87 87 NW 3 6 29.86 1011 10 16 N/A
2:53 am 02:53 Cloudy 59 15 55 12.8 87 87 N N/A 29.85 1011 10 16 N/A
3:53 am 03:53 Cloudy 60 15.6 55 12.8 84 84 N N/A 29.85 1011 10 16 N/A
4:53 am 04:53 Cloudy 60 15.6 56 13.3 86 86 N N/A 29.85 1011 10 16 N/A
5:53 am 05:53 Cloudy 59 15 56 13.3 90 90 N N/A 29.85 1011 10 16 N/A
6:49 am 06:49 Cloudy 59 15 55 13 88 88 N N/A 29.86 1011 10 16 N/A
6:53 am 06:53 Cloudy 59 15 56 13.3 90 90 N N/A 29.85 1011 10 16 N/A
7:53 am 07:53 Cloudy 59 15 56 13.3 90 90 W 3 6 29.86 1011 10 16 N/A
8:53 am 08:53 Mostly Cloudy 59 15 56 13.3 90 90 E 3 6 29.87 1012 10 16 N/A
9:06 am 09:06 Partly Cloudy 59 15 56 13.3 90 90 N N/A 29.88 1012 10 16 N/A
9:17 am 09:17 Mostly Cloudy 60 15.6 57 13.9 90 90 N N/A 29.88 1012 10 16 N/A
9:44 am 09:44 Cloudy 62 16.7 56 13.3 80 80 N N/A 29.88 1012 10 16 N/A
9:53 am 09:53 Cloudy 62 16.7 56 13.3 80 80 WNW 5 7 29.88 1012 10 16 N/A
10:34 am 10:34 Cloudy 63 17.2 57 13.9 81 81 WNW 5 7 29.88 1012 10 16 N/A
10:53 am 10:53 Cloudy 65 18.3 57 13.9 76 76 S 9 15 29.88 1012 10 16 N/A
11:38 am 11:38 Cloudy 65 18.3 57 13.9 76 76 SSW 7 11 29.88 1012 10 16 N/A
11:53 am 11:53 Cloudy 65 18.3 58 14.4 78 78 SSW 8 13 29.88 1012 10 16 N/A
12:01 pm 12:01 Cloudy 65 18.3 58 14.4 78 78 SSW 8 13 29.88 1012 8 13 N/A
12:10 pm 12:10 Cloudy 65 18.3 58 14.4 78 78 SSW 9 15 29.89 1012 8 13 N/A
12:53 pm 12:53 Cloudy with Haze 64 17.8 58 14.4 81 81 SSW 7 11 29.88 1012 6 10 N/A
1:53 pm 13:53 Mostly Cloudy 65 18.3 57 13.9 76 76 VRB 6 9 29.86 1011 9 14 N/A
2:05 pm 14:05 Partly Cloudy 65 18.3 57 13.9 76 76 SW 13 20 29.86 1011 10 16 N/A
2:53 pm 14:53 Partly Cloudy 66 18.9 57 13.9 73 73 WSW 5 7 29.85 1011 10 16 N/A
3:18 pm 15:18 Mostly Cloudy 65 18.3 57 13.9 76 76 W 5 7 29.85 1011 10 16 N/A
3:53 pm 15:53 Cloudy 66 18.9 56 13.3 70 70 SW 8 13 29.85 1011 10 16 N/A
4:33 pm 16:33 Mostly Cloudy 67 19.4 56 13.3 68 68 SSW 7 11 29.85 1011 10 16 N/A
4:53 pm 16:53 Partly Cloudy 67 19.4 54 12.2 63 63 SW 9 15 29.84 1011 10 16 N/A
5:53 pm 17:53 Mostly Cloudy 66 18.9 55 12.8 68 68 WNW 3 6 29.85 1011 10 16 N/A
6:53 pm 18:53 Mostly Clear 62 16.7 55 12.8 78 78 NE 3 6 29.85 1011 10 16 N/A
7:53 pm 19:53 Mostly Clear 62 16.7 55 12.8 78 78 SE 6 9 29.85 1011 10 16 N/A
8:53 pm 20:53 Clear 61 16.1 56 13.3 84 84 S 6 9 29.86 1011 10 16 N/A
9:53 pm 21:53 Clear 61 16.1 55 12.8 81 81 SSW 6 9 29.88 1012 10 16 N/A
10:53 pm 22:53 Clear 57 13.9 53 11.7 87 87 SW 3 6 29.90 1013 10 16 N/A
11:53 pm 23:53 Clear 56 13.3 53 11.7 90 90 N N/A 29.91 1013 10 16 N/A

Powered by AerisWeather